ALTAIR PATHFINDER (42711 NORAD) Tracking and Keplerian Element Data

This shows tracking and keplerian element data for the satellite.

Feedback or suggestion? Click here.




ElementValue
Catalog42711
NameALTAIR PATHFINDER
Epoch Orbit11011
Epoch Day112.88272545
Epoch Year2019
RAAN223.6057
Inclination51.6358
Eccentricity0.0003805
Argument of Perigee298.3387
Mean Anonmoly61.7229
Mean Motion15.76891507
Decay Rate0.00030769
L11 42711U 98067LS 19112.88272545 .00030769 00000-0 18958-3 0 9999
L22 42711 51.6358 223.6057 0003805 298.3387 61.7229 15.76891507110116

Live tracking and technical data element details for ALTAIR PATHFINDER (NORAD 42711). ALTAIR PATHFINDER can be tracked NOW for your location showing map with azimuth and elevation plus other details from your city location.

Track the satellite on the map from your city or location and see movement details for azimuth, elevation, latitude, longitude, range, height, and movement on the map or in text.







IsCatalogInMostPopularTable: catalog: 42711, numindb: 197
Update: records affected: 1



GetName: 42711 ALTAIR PATHFINDER

Hit Count: updated at: Tue, 23 Apr 2019 05:52:26 GMT